星链-4051 (STARLINK-4051 )

导读 | 豆包AI

STARLINK-4051是美国SpaceX公司星链星座的一颗卫星,于2022年7月24日发射入轨。作为星链低轨互联网星座的组成部分,它运行在近地轨道,配备相控阵天线与太阳能电池板,通过Ku/Ka波段提供高速卫星互联网服务,服务全球尤其偏远地区接入,是星链大规模全球覆盖星座部署的一环,助力SpaceX构建低轨卫星通信网络。

基本信息
目录编号:
53273
目录名称:
STARLINK-4051
国际标识:
2022-086AH
轨道中心:
EARTH
卫星名称:
星链-4051
卫星全名:
星链-4051 (STARLINK-4051 )
卫星状态:
在轨 (已飞行1376 天)
发射日期:
2022-07-24 UTC
国别 :
美国 (US)
星等 :
--
轨道信息
数据来源 国际轨道数据 AOE轨道数据
星历时间 2026-04-30T21:29:00+0800
7小时前
查看轨道信息
2026-04-26T17:00:00+0800
4天前
查看轨道信息
半长轴 6917.895km 6917.914km
偏心率 0.000137 0.0001428
轨道倾角 53.218° 53.216°
近地点辐角 91.200° 76.177°
升交点赤经 311.257° 330.053°
平近点角 268.915° 209.574°
近地点 538.81km 538.789km
远地点 540.706km 540.765km
周期 95.438分钟 95.438分钟
每日圈数 15.088353 15.088291
详细信息
固有亮度:
5
最大亮度:
2.5
卫星平台:
Starlink v1.5
覆盖范围:
全球
运营商:
太空探索技术公司
运营商所在国:
美国
制造商(研发单位):
太空探索技术公司
制造商所在国:
美国
使用方式:
暂无
卫星简介
星链(Starlink)计划是由太空探索技术公司(SpaceX)提出的一个巨型低轨卫星互联网星座项目,计划在2019年至2024年间在太空搭建由约1.2万颗卫星组成的“星链”网络,其中1584颗将部署在地球上空550千米处的近地轨道,并从2020年开始工作。该卫星仍在工作。
2D轨道图
3D轨道图
轨道高度分析图
轨道倾角分析图
轨道综合分析图
查看轨道综合分析图